Flag for U.S.A. Weather past 2 weeks in Las Cruces, New Mexico, U.S.A.

Now
90 °F

Sunny.


Feels Like: 86 °F
Forecast: 59 / 88 °F
Wind: 17 mph from West

Location: Las Cruces International

Current Time: May 29, 2015 at 6:28:02 PM

Latest Report: May 29, 2015 at 5:55 PM


Visibility: 10 mi

Pressure: 29.99 "Hg

Humidity: 7%

Dew point: 18 °F

Location of Las CrucesLocation

Historic Weather in Las Cruces — Graph

°F

Las Cruces temperature yesterday

Maximum temperature yesterday: 91 °F (at 2:55 PM)
Minimum temperature yesterday: 56 °F (at 4:35 AM)
Average temperature yesterday: 74 °F

Past Weeks' High & Low Weather Summary

 TemperatureHumidityPressure
High92 °F (May 29, 4:55 PM)93% (May 22, 6:15 AM)30.15 "Hg (May 22, 6:15 AM)
Low46 °F (May 20, 6:15 AM)5% (May 28, 2:55 PM)29.78 "Hg (May 15, 5:55 PM)
Average68 °F30%30.01 "Hg
* Reported May 14 5:15 PM — May 29 5:15 PM, Las Cruces, Weather by CustomWeather, © 2015

Note: Actual official high and low records may vary slightly from our data, if they occured in-between our weather recording intervals... More about our weather records

Advertising

Las Cruces weather history for previous 24 hours

 ConditionsComfort  
Time TempWeatherWind HumidityBarometerVisibility
5:15 PM
Fri, May 29
91 °FSunny.15 mph7%30.00 "Hg10 mi
4:55 PM92 °FSunny.15 mph7%30.00 "Hg10 mi
4:15 PM92 °FSunny.8 mph7%30.01 "Hg10 mi
3:55 PM90 °FSunny.9 mph8%30.01 "Hg10 mi
3:15 PM91 °FSunny.9 mph7%30.03 "Hg10 mi
2:35 PM91 °FSunny.10 mph7%30.04 "Hg10 mi
2:15 PM90 °FSunny.5 mph8%30.05 "Hg10 mi
1:55 PM91 °FSunny.9 mph8%30.05 "Hg10 mi
1:15 PM89 °FSunny.8 mph9%30.07 "Hg10 mi
12:55 PM88 °FSunny.7 mph9%30.07 "Hg10 mi
12:35 PM88 °FSunny.7 mph10%30.08 "Hg10 mi
12:15 PM88 °FSunny.6 mph10%30.08 "Hg10 mi
11:55 AM87 °FSunny.5 mph11%30.08 "Hg10 mi
11:35 AM85 °FSunny.3 mph12%30.09 "Hg10 mi
11:15 AM85 °FSunny.3 mph12%30.10 "Hg10 mi
10:55 AM84 °FSunny.3 mph12%30.10 "Hg10 mi
10:35 AM83 °FSunny.8 mph13%30.10 "Hg10 mi
10:15 AM83 °FSunny.9 mph13%30.10 "Hg10 mi
9:55 AM82 °FSunny.8 mph13%30.10 "Hg10 mi
9:35 AM81 °FSunny.9 mph13%30.10 "Hg10 mi
9:15 AM79 °FSunny.9 mph13%30.10 "Hg10 mi
8:55 AM78 °FSunny.10 mph13%30.10 "Hg10 mi
8:35 AM76 °FSunny.7 mph14%30.09 "Hg10 mi
8:15 AM72 °FSunny.6 mph15%30.09 "Hg10 mi
7:55 AM68 °FSunny.No wind20%30.08 "Hg10 mi
7:35 AM65 °FSunny.5 mph21%30.08 "Hg10 mi
7:15 AM64 °FSunny.7 mph21%30.08 "Hg10 mi
6:55 AM63 °FClear.5 mph21%30.07 "Hg10 mi
6:35 AM58 °FClear.5 mph24%30.07 "Hg10 mi
6:15 AM57 °FClear.No wind24%30.05 "Hg10 mi
5:55 AM58 °FClear.No wind24%30.05 "Hg10 mi
5:15 AM58 °FClear.7 mph24%30.04 "Hg10 mi
4:55 AM61 °FClear.3 mph20%30.04 "Hg10 mi
4:35 AM63 °FClear.7 mph19%30.03 "Hg10 mi
4:15 AM65 °FClear.6 mph17%30.03 "Hg10 mi
3:55 AM64 °FClear.5 mph18%30.02 "Hg10 mi
3:35 AM64 °FClear.9 mph17%30.02 "Hg10 mi
3:15 AM64 °FClear.8 mph17%30.02 "Hg10 mi
2:55 AM66 °FClear.5 mph15%30.02 "Hg10 mi
2:35 AM66 °FClear.7 mph15%30.02 "Hg10 mi
2:15 AM66 °FClear.9 mph15%30.02 "Hg10 mi
1:55 AM64 °FClear.9 mph17%30.02 "Hg10 mi
1:15 AM66 °FClear.8 mph15%30.03 "Hg10 mi
12:55 AM67 °FClear.8 mph14%30.03 "Hg10 mi
12:35 AM68 °FClear.7 mph13%30.03 "Hg10 mi
12:15 AM69 °FClear.8 mph13%30.02 "Hg10 mi
11:55 PM
Thu, May 28
72 °FClear.10 mph12%30.01 "Hg10 mi
11:15 PM74 °FClear.16 mph11%30.00 "Hg10 mi
10:55 PM76 °FClear.15 mph10%30.00 "Hg10 mi
10:35 PM75 °FClear.10 mph10%29.99 "Hg10 mi
10:15 PM76 °FClear.13 mph10%29.99 "Hg10 mi
9:15 PM77 °FClear.13 mph9%29.97 "Hg10 mi
8:55 PM80 °FSunny.13 mph9%29.96 "Hg10 mi
8:35 PM81 °FSunny.14 mph8%29.95 "Hg10 mi
8:15 PM82 °FSunny.14 mph8%29.95 "Hg10 mi
7:55 PM84 °FSunny.13 mph8%29.95 "Hg10 mi
7:35 PM86 °FSunny.16 mph7%29.95 "Hg10 mi
7:15 PM87 °FSunny.17 mph7%29.94 "Hg10 mi
6:55 PM88 °FSunny.16 mph7%29.94 "Hg10 mi
6:15 PM89 °FSunny.13 mph6%29.94 "Hg10 mi
Weather by CustomWeather, © 2015

See weather overviewHow to use our weather pages